Regional Weather Roundup
Issued by NWS State College, PA

Home | Current Version | Previous Version | Text Only | Print | Product List | Glossary On
Versions: 1 2 3 4 5 6 7 8 9 10 11 12 13 14 15 16 17 18 19 20 21 22 23 24 25 26 27 28 29 30 31 32 33 34 35 36 37 38 39 40 41 42 43 44 45 46 47 48 49 50
745
ASUS41 KCTP 240010
RWRCTP

REGIONAL WEATHER ROUNDUP
NATIONAL WEATHER SERVICE STATE COLLEGE PA
800 PM EDT WED AUG 23 2017

Note: "fair" indicates few or no clouds below 12,000 feet with no
significant weather and/or obstructions to visibility.

* = STATION THAT DOES NOT REPORT PRECIPITATION /E.G. RAIN...SNOW...ETC/
    THUNDER OR FOG.

PAZ002>004-007>009-013>016-020>023-029>032-240100-
WESTERN PENNSYLVANIA

CITY           SKY/WX    TMP DP  RH WIND       PRES   REMARKS
ERIE           PTCLDY    69  55  60 NW9       29.94R
MEADVILLE      MOCLDY    64  53  67 NW3       29.97R
FRANKLIN*      CLEAR     64  50  59 W6        29.97R
NEW CASTLE     CLOUDY    69  53  56 NW3       29.97R
BEAVER COUNTY  PTCLDY    68  52  56 CALM      29.96S
BUTLER*        CLOUDY    68  56  65 CALM      29.97R
PITTSBURGH INT MOCLDY    71  54  54 W6        29.95S
PITTSBURGH     CLEAR     69  51  52 W7        29.95R
INDIANA*       CLOUDY    68  55  64 NW5       29.98R
LATROBE        PTCLDY    68  55  64 SW7       29.96R
WASHINGTON CO* CLEAR     66  52  59 W5        29.97R
$$

PAZ004>006-010>012-017>019-024>028-033>037-041-042-045-046-049>053-240100-
CENTRAL PENNSYLVANIA

CITY           SKY/WX    TMP DP  RH WIND       PRES   REMARKS
BRADFORD       CLEAR     62  51  67 NW6       29.97R
DUBOIS         CLEAR     64  51  62 W7        29.95R
CLEARFIELD     CLOUDY    69  54  58 W6        29.95R
JOHNSTOWN      PTCLDY    65  51  60 W6        29.98R
ALTOONA        CLEAR     65  55  70 NW5       29.96R
STATE COLLEGE  PTCLDY    70  54  56 W5        29.93R
WILLIAMSPORT   CLEAR     70  60  70 SW3       29.87R
SELINSGROVE    CLEAR     64  63  96 CALM      29.89R
FT INDIANTOWN  CLEAR     67  60  79 NW3       29.89R
CAPITAL CITY   CLEAR     75  51  43 SW3       29.89R
HARRISBURG     PTCLDY    74  56  53 NW3       29.88R
YORK           CLEAR     70  58  65 CALM      29.90R
$$

PAZ038>040-043-044-047-048-054-055-060>062-067>071-240100-
EASTERN PENNSYLVANIA

CITY           SKY/WX    TMP DP  RH WIND       PRES   REMARKS
SCRANTON       MOCLDY    67  57  70 CALM      29.89R
MOUNT POCONO   CLEAR     60  55  83 NW3       29.93R
ALLENTOWN      CLEAR     72  53  51 W3        29.87R
QUAKERTOWN*    CLEAR     68  59  73 CALM      29.89R
READING        CLEAR     74  59  59 W3        29.88R
LANCASTER      CLEAR     74  57  55 NW5       29.89R
COATESVILLE    CLEAR     72  55  56 NW5       29.91R
POTTSTOWN      CLEAR     71  56  58 CALM      29.90R
BLUE BELL      CLEAR     64  61  88 CALM      29.89R
DOYLESTOWN     CLEAR     70  58  65 CALM      29.87R
WILLOW GROVE   NOT AVBL
NORTH PHILA    CLEAR     77  56  48 NW3       29.88R
PHILADELPHIA   PTCLDY    79  54  41 NW8       29.87R
$$




USA.gov is the U.S. government's official web portal to all federal, state and local government web resources and services.